TimeAKST,TemperatureF,Dew PointF,Humidity,Sea Level PressureIn,VisibilityMPH,Wind Direction,Wind SpeedMPH,Gust SpeedMPH,PrecipitationIn,Events,Conditions,WindDirDegrees,DateUTC
12:58 AM,10.9,5.0,77,29.69,10.0,North,6.9,-,N/A,,Clear,10,2013-01-23 09:58:00
1:58 AM,10.9,5.0,77,29.69,10.0,North,6.9,-,N/A,,Clear,350,2013-01-23 10:58:00
3:58 AM,12.0,5.0,73,29.68,10.0,North,8.1,-,N/A,,Clear,10,2013-01-23 12:58:00
4:58 AM,12.9,6.1,74,29.68,10.0,NNE,4.6,-,N/A,,Clear,20,2013-01-23 13:58:00
5:58 AM,12.0,5.0,73,29.68,10.0,North,5.8,-,N/A,,Clear,360,2013-01-23 14:58:00
6:58 AM,12.0,5.0,73,29.68,10.0,NE,8.1,-,N/A,,Clear,40,2013-01-23 15:58:00
7:58 AM,12.9,5.0,71,29.68,10.0,NE,8.1,-,N/A,,Clear,40,2013-01-23 16:58:00
8:58 AM,12.0,3.9,70,29.68,10.0,North,9.2,-,N/A,,Clear,360,2013-01-23 17:58:00
9:58 AM,10.9,3.0,70,29.68,10.0,North,9.2,-,N/A,,Clear,10,2013-01-23 18:58:00
10:58 AM,12.0,1.9,64,29.69,10.0,Variable,4.6,-,N/A,,Clear,0,2013-01-23 19:58:00
11:58 AM,12.9,1.0,59,29.68,10.0,NNE,8.1,-,N/A,,Clear,30,2013-01-23 20:58:00
12:58 PM,15.1,1.0,54,29.68,10.0,North,8.1,-,N/A,,Clear,10,2013-01-23 21:58:00
1:58 PM,16.0,-0.0,49,29.68,10.0,NNE,9.2,16.1,N/A,,Clear,20,2013-01-23 22:58:00
2:58 PM,16.0,-0.9,47,29.68,10.0,NNE,6.9,-,N/A,,Clear,30,2013-01-23 23:58:00
3:58 PM,15.1,-2.0,47,29.67,10.0,North,11.5,-,N/A,,Clear,350,2013-01-24 00:58:00
4:58 PM,10.9,-2.9,54,29.68,10.0,North,6.9,-,N/A,,Clear,360,2013-01-24 01:58:00
5:58 PM,10.9,-4.0,51,29.69,10.0,NE,12.7,18.4,N/A,,Clear,40,2013-01-24 02:58:00
6:58 PM,10.0,-5.1,51,29.70,10.0,NNE,15.0,21.9,N/A,,Clear,30,2013-01-24 03:58:00
7:58 PM,9.0,-5.1,53,29.72,10.0,NE,12.7,19.6,N/A,,Clear,40,2013-01-24 04:58:00
8:58 PM,9.0,-6.0,51,29.73,10.0,NE,9.2,16.1,N/A,,Clear,40,2013-01-24 05:58:00
9:58 PM,9.0,-7.1,48,29.75,10.0,NNE,10.4,16.1,N/A,,Clear,30,2013-01-24 06:58:00
10:58 PM,9.0,-6.0,51,29.76,10.0,NE,8.1,-,N/A,,Clear,50,2013-01-24 07:58:00
11:58 PM,10.0,-6.0,48,29.78,10.0,NNE,9.2,-,N/A,,Clear,30,2013-01-24 08:58:00